TimeCST,TemperatureF,Dew PointF,Humidity,Sea Level PressureIn,VisibilityMPH,Wind Direction,Wind SpeedMPH,Gust SpeedMPH,PrecipitationIn,Events,Conditions,WindDirDegrees,DateUTC
12:15 AM,64.4,55.0,72,29.99,10.0,SE,4.6,-,N/A,,Clear,140,2013-02-19 06:15:00
12:35 AM,63.5,54.5,72,29.99,10.0,SE,5.8,-,N/A,,Clear,140,2013-02-19 06:35:00
12:55 AM,62.8,54.9,75,29.99,10.0,SE,3.5,-,N/A,,Clear,130,2013-02-19 06:55:00
1:15 AM,62.4,55.4,78,30.00,10.0,SE,4.6,-,N/A,,Clear,130,2013-02-19 07:15:00
1:35 AM,63.5,56.7,78,29.99,10.0,SSE,3.5,-,N/A,,Clear,150,2013-02-19 07:35:00
1:55 AM,62.2,56.3,81,29.99,10.0,East,3.5,-,N/A,,Clear,90,2013-02-19 07:55:00
2:15 AM,63.1,57.4,81,30.00,10.0,ESE,4.6,-,N/A,,Clear,110,2013-02-19 08:15:00
2:35 AM,61.3,57.0,86,30.00,10.0,East,3.5,-,N/A,,Clear,80,2013-02-19 08:35:00
2:55 AM,59.9,57.0,90,30.00,7.0,Calm,Calm,-,N/A,,Clear,0,2013-02-19 08:55:00
3:15 AM,59.4,56.7,91,30.00,7.0,Calm,Calm,-,N/A,,Clear,0,2013-02-19 09:15:00
3:35 AM,56.8,54.7,92,30.00,4.0,Calm,Calm,-,N/A,,Clear,0,2013-02-19 09:35:00
3:55 AM,58.6,56.7,93,30.00,5.0,Calm,Calm,-,N/A,,Clear,0,2013-02-19 09:55:00
4:35 AM,59.2,57.2,93,30.01,5.0,North,6.9,-,N/A,,Clear,10,2013-02-19 10:35:00
4:55 AM,60.3,58.5,94,30.02,7.0,North,6.9,-,N/A,,Clear,360,2013-02-19 10:55:00
5:15 AM,61.3,59.0,92,30.03,7.0,Calm,Calm,-,N/A,,Clear,0,2013-02-19 11:15:00
5:35 AM,61.2,58.8,92,30.04,7.0,North,3.5,-,N/A,,Clear,10,2013-02-19 11:35:00
5:55 AM,59.7,56.5,89,30.05,10.0,North,5.8,-,N/A,,Scattered Clouds,10,2013-02-19 11:55:00
6:15 AM,59.4,51.8,76,30.06,10.0,NNE,5.8,-,N/A,,Overcast,30,2013-02-19 12:15:00
6:35 AM,60.4,54.0,79,30.06,10.0,NE,5.8,-,N/A,,Overcast,40,2013-02-19 12:35:00
6:55 AM,63.5,58.1,83,30.08,10.0,NE,12.7,-,N/A,,Overcast,50,2013-02-19 12:55:00
7:15 AM,62.2,50.0,64,30.09,10.0,ENE,15.0,19.6,N/A,,Overcast,60,2013-02-19 13:15:00
7:35 AM,61.5,46.2,57,30.10,10.0,ENE,11.5,17.3,N/A,,Mostly Cloudy,60,2013-02-19 13:35:00
7:55 AM,61.7,42.4,49,30.10,10.0,ENE,12.7,20.7,N/A,,Scattered Clouds,60,2013-02-19 13:55:00
8:15 AM,61.7,39.7,44,30.11,10.0,ENE,13.8,19.6,N/A,,Clear,70,2013-02-19 14:15:00
8:35 AM,62.4,37.4,40,30.12,10.0,ENE,13.8,18.4,N/A,,Clear,70,2013-02-19 14:35:00
8:55 AM,63.0,36.1,37,30.13,10.0,East,12.7,16.1,N/A,,Clear,80,2013-02-19 14:55:00
9:15 AM,63.9,36.3,36,30.14,10.0,ENE,11.5,18.4,N/A,,Clear,60,2013-02-19 15:15:00
9:35 AM,64.4,37.2,37,30.15,10.0,East,13.8,17.3,N/A,,Clear,80,2013-02-19 15:35:00
9:55 AM,65.8,37.2,35,30.16,10.0,ENE,11.5,19.6,N/A,,Clear,70,2013-02-19 15:55:00
10:15 AM,66.6,37.6,34,30.16,10.0,ENE,12.7,17.3,N/A,,Scattered Clouds,70,2013-02-19 16:15:00
10:35 AM,67.1,38.5,35,30.17,10.0,East,8.1,-,N/A,,Mostly Cloudy,80,2013-02-19 16:35:00
10:55 AM,67.6,38.8,35,30.17,10.0,East,12.7,19.6,N/A,,Overcast,80,2013-02-19 16:55:00
11:15 AM,67.5,39.2,36,30.17,10.0,East,11.5,-,N/A,,Overcast,80,2013-02-19 17:15:00
11:35 AM,67.5,39.2,36,30.17,10.0,ENE,9.2,-,N/A,,Overcast,70,2013-02-19 17:35:00
11:55 AM,68.0,40.6,37,30.17,10.0,ENE,10.4,-,N/A,,Overcast,70,2013-02-19 17:55:00
12:15 PM,68.5,40.5,36,30.15,10.0,East,12.7,-,N/A,,Overcast,90,2013-02-19 18:15:00
12:35 PM,68.9,42.1,38,30.15,10.0,East,10.4,-,N/A,,Overcast,100,2013-02-19 18:35:00
12:55 PM,69.6,43.0,38,30.13,10.0,East,11.5,-,N/A,,Overcast,80,2013-02-19 18:55:00
1:15 PM,70.0,43.7,39,30.12,10.0,East,9.2,-,N/A,,Overcast,90,2013-02-19 19:15:00
1:35 PM,70.7,44.6,39,30.11,10.0,East,11.5,-,N/A,,Overcast,80,2013-02-19 19:35:00
1:55 PM,73.0,44.6,36,30.09,10.0,East,9.2,-,N/A,,Overcast,80,2013-02-19 19:55:00
2:15 PM,71.8,45.7,39,30.08,10.0,ESE,13.8,20.7,N/A,,Overcast,110,2013-02-19 20:15:00
2:35 PM,73.6,46.9,39,30.07,10.0,East,9.2,19.6,N/A,,Overcast,100,2013-02-19 20:35:00
2:55 PM,73.4,48.2,41,30.05,10.0,ESE,12.7,17.3,N/A,,Overcast,120,2013-02-19 20:55:00
3:15 PM,73.4,48.9,42,30.04,10.0,East,13.8,19.6,N/A,,Overcast,100,2013-02-19 21:15:00
3:35 PM,73.0,48.4,42,30.04,10.0,East,12.7,18.4,N/A,,Overcast,90,2013-02-19 21:35:00
3:55 PM,72.5,49.6,44,30.03,10.0,East,16.1,23.0,N/A,,Overcast,100,2013-02-19 21:55:00
4:15 PM,71.8,50.4,47,30.02,10.0,ESE,12.7,18.4,N/A,,Overcast,110,2013-02-19 22:15:00
4:35 PM,71.6,50.9,48,30.01,10.0,East,17.3,21.9,N/A,,Overcast,100,2013-02-19 22:35:00
4:55 PM,71.8,50.2,46,30.01,10.0,East,15.0,20.7,N/A,,Overcast,90,2013-02-19 22:55:00
5:15 PM,71.2,50.0,47,30.01,10.0,East,16.1,21.9,N/A,,Overcast,90,2013-02-19 23:15:00
6:35 PM,68.9,52.3,55,30.00,10.0,East,17.3,26.5,N/A,,Overcast,100,2013-02-20 00:35:00
6:55 PM,68.0,52.7,58,30.01,10.0,East,16.1,23.0,N/A,,Mostly Cloudy,90,2013-02-20 00:55:00
7:15 PM,67.3,52.7,59,30.02,10.0,East,18.4,25.3,N/A,,Scattered Clouds,90,2013-02-20 01:15:00
7:35 PM,66.4,52.0,60,30.02,10.0,East,17.3,23.0,N/A,,Clear,100,2013-02-20 01:35:00
7:55 PM,65.8,52.2,61,30.02,10.0,East,16.1,28.8,N/A,,Clear,100,2013-02-20 01:55:00
8:15 PM,65.7,52.9,63,30.02,10.0,East,16.1,21.9,N/A,,Mostly Cloudy,90,2013-02-20 02:15:00
8:35 PM,65.3,53.6,66,30.02,10.0,East,17.3,25.3,N/A,,Overcast,100,2013-02-20 02:35:00
8:55 PM,65.3,54.0,67,30.03,10.0,East,16.1,21.9,N/A,,Overcast,100,2013-02-20 02:55:00
9:15 PM,65.5,54.3,67,30.03,10.0,East,16.1,25.3,N/A,,Overcast,100,2013-02-20 03:15:00
9:35 PM,64.9,54.5,69,30.02,10.0,ESE,18.4,23.0,N/A,,Overcast,110,2013-02-20 03:35:00
9:55 PM,64.9,54.5,69,30.02,10.0,ESE,13.8,23.0,N/A,,Mostly Cloudy,110,2013-02-20 03:55:00
10:15 PM,65.3,54.5,68,30.01,10.0,ESE,16.1,21.9,N/A,,Overcast,110,2013-02-20 04:15:00
10:35 PM,65.3,55.0,69,30.00,10.0,ESE,15.0,23.0,N/A,,Overcast,110,2013-02-20 04:35:00
10:55 PM,65.3,55.4,70,30.00,10.0,ESE,16.1,21.9,N/A,,Overcast,110,2013-02-20 04:55:00
11:15 PM,65.5,55.8,71,29.99,10.0,ESE,11.5,18.4,N/A,,Overcast,110,2013-02-20 05:15:00
11:35 PM,65.5,56.3,72,30.00,10.0,ESE,10.4,19.6,N/A,,Overcast,110,2013-02-20 05:35:00
11:55 PM,65.7,56.7,73,29.99,10.0,East,11.5,21.9,N/A,,Overcast,100,2013-02-20 05:55:00